TimeMDT,TemperatureF,Dew PointF,Humidity,Sea Level PressureIn,VisibilityMPH,Wind Direction,Wind SpeedMPH,Gust SpeedMPH,PrecipitationIn,Events,Conditions,WindDirDegrees,DateUTC
12:15 AM,39.2,28.4,65,30.08,10.0,SW,5.8,-,N/A,,Overcast,230,2013-04-07 06:15:00
12:35 AM,39.2,28.4,65,30.09,10.0,WNW,4.6,-,N/A,,Overcast,290,2013-04-07 06:35:00
12:55 AM,39.2,28.4,65,30.08,10.0,North,6.9,-,N/A,,Overcast,350,2013-04-07 06:55:00
1:15 AM,37.4,30.2,75,30.09,10.0,NNW,8.1,-,N/A,,Overcast,330,2013-04-07 07:15:00
1:35 AM,35.6,30.2,81,30.07,8.0,Calm,Calm,-,0.01,,Overcast,0,2013-04-07 07:35:00
1:55 AM,35.6,30.2,81,30.07,10.0,Calm,Calm,-,0.01,,Partly Cloudy,0,2013-04-07 07:55:00
2:15 AM,35.6,30.2,81,30.06,10.0,South,3.5,-,N/A,,Mostly Cloudy,170,2013-04-07 08:15:00
2:35 AM,35.6,30.2,81,30.06,10.0,Calm,Calm,-,N/A,,Overcast,0,2013-04-07 08:35:00
2:55 AM,35.6,32.0,87,30.05,10.0,Calm,Calm,-,N/A,,Overcast,0,2013-04-07 08:55:00
3:15 AM,37.4,30.2,75,30.05,10.0,WSW,3.5,-,N/A,,Overcast,250,2013-04-07 09:15:00
3:35 AM,35.6,30.2,81,30.04,10.0,Calm,Calm,-,N/A,,Overcast,0,2013-04-07 09:35:00
4:15 AM,35.6,30.2,81,30.03,10.0,NNW,6.9,-,N/A,,Overcast,340,2013-04-07 10:15:00
4:35 AM,35.6,30.2,81,30.03,10.0,NNW,6.9,-,N/A,,Overcast,330,2013-04-07 10:35:00
4:55 AM,35.6,30.2,81,30.02,10.0,NNW,6.9,-,N/A,,Overcast,340,2013-04-07 10:55:00
5:35 AM,35.6,28.4,75,30.03,10.0,NNW,4.6,-,N/A,,Overcast,330,2013-04-07 11:35:00
5:55 AM,33.8,28.4,81,30.02,10.0,NNW,4.6,-,N/A,,Mostly Cloudy,330,2013-04-07 11:55:00
6:35 AM,33.8,28.4,81,30.03,10.0,WNW,3.5,-,N/A,,Scattered Clouds,290,2013-04-07 12:35:00
7:15 AM,32.0,26.6,80,30.04,5.0,NNW,3.5,-,N/A,,Overcast,330,2013-04-07 13:15:00
7:35 AM,32.0,26.6,80,30.04,10.0,Calm,Calm,-,N/A,,Overcast,0,2013-04-07 13:35:00
7:55 AM,33.8,28.4,81,30.04,10.0,Calm,Calm,-,N/A,,Overcast,0,2013-04-07 13:55:00
8:35 AM,35.6,28.4,75,30.04,10.0,Calm,Calm,-,N/A,,Overcast,0,2013-04-07 14:35:00
8:55 AM,35.6,30.2,81,30.04,10.0,Calm,Calm,-,N/A,,Mostly Cloudy,0,2013-04-07 14:55:00
9:15 AM,37.4,30.2,75,30.04,10.0,WSW,4.6,-,N/A,,Overcast,240,2013-04-07 15:15:00
9:35 AM,37.4,30.2,75,30.03,10.0,SW,4.6,-,N/A,,Overcast,220,2013-04-07 15:35:00
9:55 AM,39.2,32.0,75,30.02,10.0,Calm,Calm,-,N/A,,Overcast,0,2013-04-07 15:55:00
10:15 AM,39.2,30.2,70,30.02,10.0,Calm,Calm,-,N/A,,Mostly Cloudy,0,2013-04-07 16:15:00
10:35 AM,42.8,30.2,61,30.02,10.0,NNE,3.5,-,N/A,,Overcast,20,2013-04-07 16:35:00
10:55 AM,42.8,30.2,61,30.01,10.0,North,3.5,-,N/A,,Mostly Cloudy,360,2013-04-07 16:55:00
11:15 AM,42.8,30.2,61,30.01,10.0,Calm,Calm,-,N/A,,Overcast,0,2013-04-07 17:15:00
11:35 AM,44.6,28.4,53,29.99,10.0,NE,5.8,-,N/A,,Mostly Cloudy,40,2013-04-07 17:35:00
11:55 AM,46.4,26.6,46,29.99,10.0,NW,13.8,17.3,N/A,,Overcast,320,2013-04-07 17:55:00
12:15 PM,46.4,26.6,46,29.99,10.0,WNW,12.7,16.1,N/A,,Overcast,290,2013-04-07 18:15:00
12:35 PM,46.4,26.6,46,29.98,10.0,West,15.0,-,N/A,,Overcast,270,2013-04-07 18:35:00
12:55 PM,50.0,26.6,40,29.96,10.0,WSW,19.6,24.2,N/A,,Mostly Cloudy,250,2013-04-07 18:55:00
1:15 PM,51.8,24.8,35,29.95,10.0,SW,20.7,28.8,N/A,,Mostly Cloudy,230,2013-04-07 19:15:00
1:35 PM,48.2,24.8,40,29.95,10.0,WNW,15.0,19.6,N/A,,Overcast,300,2013-04-07 19:35:00
1:55 PM,51.8,24.8,35,29.94,10.0,West,12.7,23.0,N/A,,Scattered Clouds,260,2013-04-07 19:55:00
2:15 PM,51.8,23.0,33,29.94,10.0,West,19.6,29.9,N/A,,Partly Cloudy,270,2013-04-07 20:15:00
2:35 PM,50.0,23.0,35,29.93,10.0,NW,15.0,34.5,N/A,,Mostly Cloudy,310,2013-04-07 20:35:00
2:55 PM,51.8,24.8,35,29.92,10.0,West,13.8,26.5,N/A,,Scattered Clouds,260,2013-04-07 20:55:00
3:15 PM,51.8,21.2,30,29.92,10.0,West,11.5,28.8,N/A,,Mostly Cloudy,270,2013-04-07 21:15:00
3:35 PM,51.8,21.2,30,29.91,10.0,WNW,21.9,26.5,N/A,,Partly Cloudy,290,2013-04-07 21:35:00
3:55 PM,50.0,23.0,35,29.91,10.0,NW,16.1,26.5,N/A,,Scattered Clouds,320,2013-04-07 21:55:00
4:15 PM,51.8,23.0,33,29.90,10.0,West,15.0,26.5,N/A,,Partly Cloudy,270,2013-04-07 22:15:00
4:35 PM,51.8,23.0,33,29.89,10.0,WNW,12.7,17.3,N/A,,Partly Cloudy,300,2013-04-07 22:35:00
4:55 PM,53.6,21.2,28,29.88,10.0,WSW,9.2,26.5,N/A,,Partly Cloudy,240,2013-04-07 22:55:00
5:15 PM,53.6,19.4,26,29.88,10.0,SW,10.4,19.6,N/A,,Mostly Cloudy,220,2013-04-07 23:15:00
5:35 PM,51.8,21.2,30,29.89,10.0,SSW,23.0,35.7,N/A,,Overcast,200,2013-04-07 23:35:00
5:55 PM,48.2,23.0,37,29.88,10.0,SW,13.8,23.0,N/A,,Scattered Clouds,220,2013-04-07 23:55:00
6:15 PM,50.0,21.2,32,29.89,10.0,WSW,11.5,-,N/A,,Mostly Cloudy,240,2013-04-08 00:15:00
6:35 PM,50.0,19.4,30,29.89,10.0,SSW,24.2,29.9,N/A,,Mostly Cloudy,210,2013-04-08 00:35:00
6:55 PM,48.2,19.4,32,29.89,10.0,SW,12.7,20.7,N/A,,Overcast,230,2013-04-08 00:55:00
7:15 PM,48.2,19.4,32,29.89,10.0,SW,11.5,-,N/A,,Mostly Cloudy,220,2013-04-08 01:15:00
7:35 PM,48.2,19.4,32,29.89,10.0,SSW,8.1,-,N/A,,Clear,200,2013-04-08 01:35:00
7:55 PM,46.4,21.2,37,29.89,10.0,South,9.2,-,N/A,,Clear,170,2013-04-08 01:55:00
8:15 PM,46.4,21.2,37,29.88,10.0,SSW,9.2,-,N/A,,Clear,200,2013-04-08 02:15:00
8:55 PM,44.6,21.2,39,29.89,10.0,Calm,Calm,-,N/A,,Partly Cloudy,0,2013-04-08 02:55:00
9:15 PM,42.8,23.0,46,29.88,10.0,ESE,4.6,-,N/A,,Partly Cloudy,110,2013-04-08 03:15:00
9:35 PM,42.8,23.0,46,29.90,10.0,West,12.7,18.4,N/A,,Mostly Cloudy,280,2013-04-08 03:35:00
10:15 PM,46.4,21.2,37,29.94,10.0,West,12.7,23.0,N/A,,Mostly Cloudy,260,2013-04-08 04:15:00
10:35 PM,42.8,24.8,49,29.91,10.0,North,3.5,-,N/A,,Scattered Clouds,10,2013-04-08 04:35:00
10:55 PM,41.0,26.6,57,29.90,10.0,North,10.4,-,N/A,,Clear,10,2013-04-08 04:55:00
11:15 PM,39.2,26.6,61,29.90,10.0,North,10.4,-,N/A,,Partly Cloudy,350,2013-04-08 05:15:00
11:35 PM,39.2,28.4,65,29.90,10.0,North,12.7,-,N/A,,Mostly Cloudy,360,2013-04-08 05:35:00
11:55 PM,39.2,28.4,65,29.90,10.0,ENE,6.9,-,N/A,,Mostly Cloudy,60,2013-04-08 05:55:00